Wind_Speed
36 36 36 36 36 36 35 35 34 33 32 31 29 28 27 25 24 23 22 21 20 20 20 20 19 17 16 15 13 12 11 9 8 7 6 6 6 6 6 5 4 4 3 3 3 3 4 4 5 6 8 11 14 17 20 22 25 29 32 33 30 29 30 34 35 36 39 41 42 42 42 42 42 42 41 41 40 39 39 39 38 38 38 39 39 40 40 39
38 38 38 38 38 37 37 36 36 35 34 33 32 30 29 27 26 25 25 24 22 22 22 22 21 20 19 18 17 15 14 13 12 10 9 9 8 8 8 8 7 7 6 5 5 5 4 4 4 4 5 6 8 10 12 14 18 21 23 25 26 26 26 30 34 34 36 38 38 39 38 37 37 38 37 37 37 36 36 36 36 36 36 37 39 39 39 38
40 40 40 40 39 39 38 38 37 37 36 35 34 32 31 29 28 27 27 26 25 23 23 24 24 23 22 21 20 18 17 16 15 13 11 12 11 10 10 10 10 10 9 8 8 7 6 6 5 5 4 5 5 6 8 10 12 14 17 18 19 24 26 30 34 34 35 34 33 33 33 32 33 34 33 32 32 32 32 31 32 32 31 32 35 36 36 35
42 42 41 41 40 40 40 39 39 38 37 37 36 34 32 30 29 29 29 28 27 25 25 25 26 25 24 23 22 21 20 19 18 16 14 15 14 13 13 13 12 12 12 11 10 10 9 8 8 7 6 6 6 6 6 7 9 10 12 14 15 20 23 24 26 26 26 25 24 24 24 23 24 25 24 23 24 24 25 25 27 27 26 28 31 32 32 31
43 42 42 42 42 41 41 41 40 40 39 38 37 36 34 32 30 30 30 30 29 28 27 27 27 27 26 25 24 24 23 21 21 19 18 18 17 15 15 16 15 14 14 14 13 12 12 11 11 10 9 8 8 8 7 7 8 8 10 13 15 17 17 17 19 18 18 17 17 17 16 16 17 17 17 17 18 19 21 21 22 22 22 24 27 29 28 26
44 43 43 43 43 43 43 42 42 41 40 39 38 37 35 33 32 31 31 32 31 30 29 28 29 29 28 28 27 26 25 24 23 22 21 20 19 18 17 19 19 17 16 16 16 15 14 15 14 13 12 12 11 11 10 10 10 10 12 13 15 16 15 15 17 16 16 16 15 15 14 15 15 16 16 16 17 18 19 19 19 18 19 22 24 26 25 23
45 45 45 45 45 45 44 43 43 42 41 40 39 37 36 35 33 33 33 33 33 32 31 30 30 30 30 30 29 28 27 26 25 25 24 23 21 21 21 21 22 20 18 18 18 17 17 18 17 16 16 15 14 14 14 13 12 12 13 14 15 16 15 15 17 18 17 16 15 14 14 15 15 15 15 15 15 16 18 17 16 15 16 19 22 25 24 24
47 47 47 47 46 46 45 44 43 42 41 41 39 38 37 36 35 35 34 34 34 34 33 32 32 32 31 31 31 30 29 27 27 28 27 26 24 24 24 24 24 24 22 20 20 20 21 20 19 19 17 17 18 18 17 16 15 15 15 15 15 15 16 17 18 18 17 16 15 14 14 15 15 15 15 15 15 15 17 16 14 12 13 17 21 24 24 24
49 49 49 48 48 47 46 45 44 43 42 41 40 39 39 38 37 37 36 36 36 35 35 34 34 33 33 33 33 32 31 29 29 30 29 29 28 27 27 27 26 26 25 23 22 23 23 22 21 20 19 21 22 20 19 19 18 17 17 16 16 16 17 17 17 17 17 16 14 14 14 15 16 16 15 15 15 15 16 16 14 11 13 16 18 21 22 20
51 51 50 49 49 48 47 46 45 44 44 43 42 41 40 40 39 39 38 38 38 37 37 36 36 36 35 35 35 35 34 31 31 32 32 32 31 30 29 29 29 28 28 27 25 25 25 23 22 22 24 26 24 21 21 21 21 20 19 19 18 17 17 17 17 17 16 16 15 14 14 15 16 15 15 15 15 15 15 16 15 12 13 15 14 18 18 14
52 52 51 51 50 50 49 48 47 46 46 45 44 43 43 42 42 41 41 41 40 39 39 38 38 38 38 38 38 38 37 33 33 35 35 34 34 34 32 32 32 31 30 29 29 28 26 25 25 26 27 28 26 24 24 24 23 23 22 20 20 19 19 19 18 18 17 16 16 15 15 15 16 15 15 15 16 16 15 15 14 11 12 14 14 17 16 13
54 53 52 52 52 52 51 50 49 49 49 48 48 47 46 46 45 45 44 44 43 42 42 41 41 40 40 41 40 41 40 36 35 37 37 37 36 36 35 35 34 33 32 31 31 30 28 27 28 30 30 29 28 27 27 27 26 24 23 22 22 21 20 21 21 19 18 17 18 17 16 15 15 15 15 15 16 15 15 14 12 11 11 14 16 16 14 13
55 55 55 54 54 54 54 53 52 52 52 52 51 51 50 50 49 48 48 47 47 46 45 44 43 43 43 43 42 43 43 39 38 39 39 39 38 38 38 37 36 36 35 34 33 32 31 30 31 31 31 30 30 30 29 29 27 26 24 24 24 23 23 23 23 21 18 18 19 19 17 16 16 16 15 15 15 14 14 12 10 10 10 12 14 14 13 12
58 58 58 57 57 58 58 57 56 56 55 55 55 54 54 53 52 51 51 51 50 49 48 47 46 45 45 45 43 45 45 42 41 40 40 41 41 40 40 39 38 38 37 37 36 34 34 33 33 32 32 32 32 33 32 30 30 28 26 25 25 24 25 25 24 22 20 19 19 20 19 18 16 16 16 15 14 13 14 10 7 8 8 10 12 12 14 13
61 61 61 61 60 61 62 61 60 59 59 58 58 58 57 56 56 55 54 53 53 52 51 50 49 48 48 46 45 48 47 45 44 43 43 44 43 42 41 41 40 40 40 39 38 37 36 35 34 33 34 35 34 35 34 31 32 30 28 28 26 26 27 26 25 24 23 21 20 21 20 18 18 17 16 15 15 13 13 10 6 6 6 11 12 10 12 14
64 64 63 63 63 63 64 64 63 62 61 61 61 60 60 59 59 58 57 56 55 55 54 53 52 51 51 50 48 49 49 47 46 46 46 46 45 44 43 42 43 42 42 41 40 39 37 37 36 36 37 36 36 38 35 32 34 33 32 30 28 28 28 28 27 26 26 23 21 21 20 19 19 17 16 16 16 14 13 10 8 5 5 11 12 10 10 13
67 66 66 65 64 64 65 66 65 65 64 63 63 63 63 62 61 60 60 59 58 57 57 56 55 54 54 54 51 50 52 50 48 49 48 47 46 46 45 44 44 44 44 42 41 41 40 39 39 38 39 39 39 39 36 36 37 37 35 33 31 30 30 31 29 27 28 25 23 22 20 20 20 19 18 18 17 15 14 11 10 7 3 9 13 11 10 12
69 69 69 68 67 67 68 68 68 67 67 66 66 66 65 65 64 63 62 61 60 59 58 57 57 56 56 56 53 52 53 52 51 51 49 48 48 48 46 45 46 46 45 45 44 43 42 42 41 40 41 41 41 40 39 41 42 39 38 35 33 31 31 33 31 29 30 28 26 24 22 21 21 21 20 18 18 16 14 12 11 8 4 8 13 13 12 11
73 73 73 72 71 71 71 72 71 71 71 70 69 69 69 68 67 66 65 65 63 62 60 59 60 59 57 58 57 54 54 54 53 52 50 49 50 49 48 47 48 49 47 47 46 46 46 44 43 42 43 44 44 44 45 46 44 41 40 37 34 33 33 36 35 32 31 30 29 27 24 23 23 23 21 20 19 17 15 13 11 9 6 8 13 14 14 12
78 78 78 77 76 75 75 76 76 75 75 74 73 73 72 72 71 69 69 69 68 66 65 63 64 63 61 62 60 56 57 57 54 54 53 51 51 51 49 49 50 51 50 50 49 48 48 46 46 47 47 46 47 47 47 46 44 43 42 40 37 36 36 38 38 35 33 33 32 30 27 26 25 24 22 21 20 18 15 13 12 9 7 8 12 14 14 12
80 80 80 80 79 78 78 78 78 78 78 77 76 75 75 75 75 72 72 72 71 70 69 67 67 67 65 66 64 62 61 59 57 57 55 54 53 52 51 52 53 53 54 52 51 49 48 48 49 50 48 47 47 46 47 46 45 44 44 43 40 38 38 40 41 38 35 34 34 33 30 29 28 26 24 23 22 19 16 14 12 10 7 8 12 15 15 13
79 79 80 80 79 79 79 79 79 79 78 78 78 77 76 76 76 74 73 72 72 72 70 69 69 69 69 67 66 66 63 61 61 59 59 58 56 55 55 55 54 56 56 52 50 49 49 51 52 50 47 46 45 45 46 46 46 46 46 45 43 41 42 43 44 42 39 37 37 36 34 32 30 28 26 24 23 21 17 15 13 11 8 8 12 14 15 14
80 80 81 81 80 80 79 79 79 79 79 79 78 78 78 78 77 76 73 72 73 73 69 69 69 68 70 68 66 67 63 61 62 60 61 61 57 57 58 56 56 58 55 51 51 51 52 54 51 47 45 45 45 45 46 47 47 47 47 46 45 45 46 45 46 47 43 40 39 38 37 35 32 30 27 25 25 23 19 17 15 13 10 10 11 12 14 15
84 84 84 85 85 83 82 82 81 80 80 80 80 79 79 79 79 78 75 72 73 75 72 71 70 69 71 71 68 66 63 62 62 61 62 61 58 59 57 57 58 56 52 51 52 52 53 52 48 45 45 45 45 46 46 47 48 48 47 46 47 48 48 47 48 49 45 41 42 41 39 36 33 31 29 27 26 25 22 19 17 15 12 10 10 11 15 19
87 88 88 88 88 88 87 86 86 85 84 84 83 82 82 81 81 79 78 75 74 77 77 74 72 72 74 73 69 67 67 66 63 61 62 61 60 60 58 59 58 54 53 54 54 53 53 50 47 46 46 46 45 45 46 48 48 48 46 46 48 48 46 47 48 47 45 45 45 43 38 36 34 33 32 30 28 27 25 22 19 16 14 12 11 13 16 19
89 90 91 90 90 91 90 89 89 88 87 87 87 86 86 85 85 83 82 80 76 78 81 78 75 75 76 75 72 72 71 67 65 64 63 63 62 62 60 59 57 55 56 57 54 52 52 50 48 47 47 46 45 45 47 48 48 47 46 47 48 46 45 46 46 44 45 48 46 42 38 37 37 35 34 33 31 29 26 25 22 19 16 14 13 15 16 19
92 93 94 94 93 94 94 93 92 92 90 89 88 88 88 88 88 87 86 85 82 81 83 83 80 77 77 78 77 77 72 69 69 66 63 65 65 64 62 60 58 58 59 59 54 51 53 52 50 49 48 46 45 47 49 48 46 46 46 45 44 44 43 44 45 43 44 48 45 40 38 39 39 38 38 36 33 31 28 27 25 21 18 16 15 16 18 20
93 94 96 96 96 96 97 97 96 96 95 94 92 90 90 89 89 89 88 88 86 83 83 85 85 82 79 79 81 80 75 72 73 70 66 68 68 66 64 61 60 61 62 60 54 54 57 54 52 52 47 45 47 48 47 45 44 45 43 41 41 42 41 43 43 42 44 46 41 38 39 42 43 42 41 39 35 33 32 30 27 23 20 18 17 17 20 22
92 93 95 96 97 97 97 98 98 98 98 97 96 94 93 93 92 91 91 89 87 85 84 85 87 85 82 81 83 85 80 76 76 74 70 70 69 68 65 64 64 64 64 60 56 58 58 54 54 52 44 44 48 47 44 42 43 43 40 39 41 42 42 42 41 41 43 41 36 38 42 45 47 46 43 40 38 38 37 33 29 25 21 20 18 18 21 23
93 94 95 95 96 96 96 97 97 98 98 98 97 96 95 95 95 95 94 92 91 89 86 85 87 87 85 84 84 85 84 80 77 76 74 73 73 71 69 68 67 65 64 60 58 59 57 55 55 49 43 46 48 45 42 43 44 43 39 40 41 41 41 41 41 43 42 38 36 41 45 48 51 48 44 43 43 43 39 34 31 27 24 21 20 20 22 23
96 96 97 97 97 97 97 97 96 96 97 96 96 95 95 95 95 96 96 94 96 96 91 89 88 87 88 86 84 84 84 82 77 76 77 76 76 74 71 70 68 66 64 61 59 59 58 56 53 49 48 50 48 45 44 44 45 43 40 40 40 38 39 40 40 42 42 41 45 48 50 52 53 51 48 47 47 45 40 36 33 29 27 24 22 23 24 23
100 100 100 100 100 99 99 98 98 97 96 96 95 94 94 93 92 92 93 96 101 100 95 91 89 88 90 88 86 85 84 83 80 77 78 77 76 75 71 69 67 66 63 61 61 61 60 57 54 52 52 51 48 46 45 44 44 41 40 40 37 36 37 38 38 40 42 46 49 51 52 51 53 55 52 48 48 47 41 37 34 32 29 26 24 25 24 22
102 102 102 102 101 101 101 101 100 99 98 97 96 95 95 93 91 90 92 98 101 97 93 92 89 89 90 90 90 89 87 86 84 81 80 79 78 76 72 71 70 67 65 65 65 64 62 59 55 53 52 50 47 45 45 44 43 41 41 40 36 35 36 37 38 39 42 47 49 49 48 48 53 56 51 48 50 48 42 38 36 33 31 28 25 26 24 22
103 102 102 102 101 100 100 100 99 99 98 98 97 97 97 95 93 92 96 99 96 89 88 89 87 88 91 92 93 93 91 90 88 86 84 82 80 77 74 72 71 69 69 69 67 65 64 58 53 53 53 50 48 47 47 47 45 44 42 40 36 35 36 37 38 40 43 45 45 44 44 46 51 53 49 48 50 48 42 39 37 34 32 29 26 25 25 24
104 103 103 102 101 100 98 97 96 96 96 96 96 96 96 96 95 98 102 101 93 86 84 84 84 88 92 93 95 96 94 92 90 88 87 85 82 78 76 74 72 71 70 69 66 64 62 58 56 58 58 54 51 51 51 49 46 45 43 39 34 34 35 36 37 39 39 40 40 40 40 42 46 50 50 49 50 49 43 39 37 34 32 30 27 26 27 25
105 105 105 105 103 101 99 97 95 95 94 94 94 94 95 95 97 102 104 98 90 86 83 83 87 90 91 94 97 96 95 94 93 91 89 87 84 82 79 77 75 74 72 70 67 65 63 61 60 61 59 54 52 52 51 48 47 45 42 38 36 36 36 36 35 35 34 35 37 38 39 41 44 48 50 49 49 48 43 40 38 36 35 33 30 29 29 27
103 103 103 105 104 102 101 99 97 97 96 96 96 95 95 96 99 102 99 90 86 86 85 87 90 90 90 93 96 97 97 98 96 93 91 90 88 87 84 81 80 78 75 73 72 68 65 65 63 60 59 56 54 54 52 49 47 44 41 40 37 35 33 32 31 31 31 33 36 38 39 41 44 47 48 48 49 47 44 43 42 39 38 35 33 31 30 29
97 97 98 99 100 100 99 97 97 97 98 99 99 98 99 100 100 99 92 85 84 84 86 91 92 91 92 94 96 98 98 98 97 94 93 93 92 90 88 86 84 80 77 76 73 68 65 66 65 62 62 60 58 58 54 49 46 43 42 40 35 31 30 29 29 29 30 32 36 39 40 40 44 46 47 48 49 49 49 48 45 42 40 38 37 35 32 31
91 91 90 90 91 91 91 90 90 91 93 96 98 99 101 102 100 97 91 86 85 86 89 94 96 95 95 96 97 96 94 96 97 95 95 96 96 93 91 88 83 79 78 76 71 68 66 68 69 65 64 65 62 59 53 47 46 45 43 39 33 31 31 30 30 30 30 33 37 38 37 39 42 43 43 46 48 49 51 50 47 44 43 42 40 37 35 33
85 84 83 82 81 79 79 79 79 81 84 87 90 93 98 100 100 99 95 92 91 91 91 95 97 96 96 98 99 94 90 93 95 94 97 101 99 95 92 87 83 80 80 75 72 73 70 71 73 68 65 67 62 55 51 49 49 48 44 40 37 35 33 31 31 29 29 32 37 37 34 34 37 40 41 44 47 48 50 50 48 46 45 44 41 39 37 34
78 78 76 74 73 71 69 69 69 70 73 75 78 83 89 94 98 100 100 98 96 95 94 96 97 96 96 98 97 92 89 91 94 95 100 104 100 94 89 85 82 80 80 77 76 78 74 73 76 70 65 66 61 54 55 54 53 52 48 45 43 41 39 35 32 29 29 32 38 39 33 25 29 38 42 43 45 46 49 50 49 48 47 46 44 41 39 36
69 69 69 67 66 64 63 62 62 62 63 65 67 71 76 83 90 96 100 101 102 101 100 101 100 97 97 97 96 94 90 92 95 96 101 104 97 91 87 84 81 80 81 80 80 81 78 76 78 73 65 66 65 61 60 58 56 55 51 49 48 47 44 41 38 35 34 35 40 41 34 25 26 35 39 41 43 44 48 51 50 50 50 49 48 45 43 39
62 62 61 60 60 58 58 57 57 57 57 58 59 62 65 71 79 88 95 100 103 105 105 105 104 101 98 96 97 96 93 93 95 97 102 101 92 87 87 86 84 83 83 84 85 86 82 77 77 74 68 69 71 66 62 61 58 55 52 49 49 48 45 44 43 40 38 40 42 40 34 28 28 31 34 37 40 42 47 50 51 51 51 51 50 48 45 42
56 56 55 54 54 53 53 53 53 52 52 53 53 55 58 62 69 78 88 95 101 105 106 108 107 103 98 96 95 93 92 93 95 99 101 97 89 86 88 89 89 88 87 88 87 87 82 76 78 78 72 71 72 67 62 60 56 53 52 50 49 49 48 46 44 42 41 43 42 41 36 30 29 30 31 34 36 39 43 49 51 51 52 53 52 49 47 45
51 52 51 49 48 48 48 48 48 48 48 48 49 50 52 56 61 69 79 87 95 102 107 110 110 105 99 97 94 91 91 94 97 100 99 94 90 87 87 90 91 91 90 90 88 85 81 78 79 79 73 70 70 67 62 58 55 54 54 52 51 51 50 47 45 42 43 43 41 43 40 33 30 32 32 32 34 36 40 46 50 51 52 54 52 50 49 47
46 47 48 46 44 43 43 43 43 43 43 44 45 46 49 51 56 62 70 79 88 97 104 109 111 109 104 100 96 94 94 96 99 100 96 93 91 90 89 91 91 91 92 92 90 87 84 82 81 79 76 73 73 71 66 62 59 58 57 55 53 52 51 49 46 44 44 44 42 44 43 38 35 35 34 33 34 36 39 44 48 50 52 53 52 51 51 50
42 42 43 43 42 40 39 39 39 39 39 40 41 43 45 48 51 57 63 71 80 90 99 106 110 112 109 105 100 97 97 99 101 100 95 93 92 90 90 91 91 91 93 94 93 90 89 87 83 81 81 78 76 73 67 62 61 61 61 60 57 55 54 51 47 46 47 46 44 46 47 44 40 37 35 34 34 36 39 42 46 49 51 52 53 53 53 52
43 40 39 39 39 37 36 36 35 34 35 36 38 39 42 45 48 53 59 66 74 83 92 101 108 111 111 108 104 102 102 103 102 99 95 93 92 90 91 92 93 93 94 95 93 91 90 88 85 85 86 81 76 73 68 64 64 65 63 62 59 57 56 53 50 50 50 48 48 48 49 47 44 40 37 35 35 36 38 39 41 45 49 52 54 54 54 54
43 41 39 36 35 34 33 33 33 31 31 33 35 36 38 42 46 50 55 62 69 77 85 94 102 108 110 110 108 107 107 106 103 98 93 91 90 91 93 95 96 96 96 94 92 90 89 89 89 88 87 83 77 74 72 70 68 67 65 64 62 60 58 56 55 53 52 52 51 50 49 49 48 44 39 36 36 36 36 36 37 41 45 49 52 53 54 54
42 40 38 36 34 32 31 31 31 30 29 30 32 34 35 39 44 48 52 58 65 72 79 87 96 104 108 110 110 110 110 108 104 98 91 89 89 92 95 97 96 96 95 92 91 90 91 94 93 88 86 82 76 74 74 73 70 70 70 67 64 62 59 58 57 56 55 55 54 52 51 50 51 48 41 36 36 35 35 36 36 37 41 45 50 52 53 54
40 38 36 35 33 32 30 30 29 28 27 27 28 31 33 37 41 45 50 55 60 67 73 81 89 98 105 108 110 112 111 109 105 98 92 88 88 92 95 94 93 92 91 90 89 90 94 93 89 85 84 81 77 75 76 75 74 75 73 69 66 64 62 60 59 58 57 56 55 54 53 52 52 51 43 38 37 37 37 37 37 37 39 43 47 49 51 53
40 38 35 33 31 30 29 28 27 26 26 25 25 28 31 34 38 42 47 51 56 62 68 75 83 92 100 106 110 112 112 109 105 100 95 91 89 91 93 91 90 91 91 90 89 91 92 88 84 85 85 84 83 80 79 79 79 76 72 69 69 67 65 63 62 60 59 59 57 57 58 56 54 55 49 42 41 40 40 39 38 37 38 39 43 47 50 51
Wind_Direction
254 256 258 260 262 263 264 265 266 267 267 267 265 264 262 260 258 256 254 252 250 249 249 248 244 239 233 226 220 216 214 217 215 212 221 219 208 211 216 224 227 223 215 200 191 180 172 174 179 190 198 207 214 220 224 226 227 230 232 233 235 238 246 254 256 256 256 257 258 260 262 263 265 267 268 269 270 271 272 274 274 275 276 277 277 277 278 278
255 256 258 259 261 262 263 265 265 266 266 266 265 264 263 261 260 257 254 252 249 247 247 247 246 242 239 235 228 224 221 222 221 215 227 230 223 223 218 219 227 231 232 228 224 218 213 200 192 190 184 189 193 200 209 213 219 224 229 230 230 232 240 249 252 257 260 261 261 262 263 265 267 268 269 270 271 272 273 274 275 276 278 278 278 278 279 279
256 257 258 259 260 262 263 264 264 265 265 265 265 263 262 261 260 258 256 253 250 247 245 246 246 244 241 240 236 231 227 228 227 219 228 234 231 234 231 223 223 229 234 236 237 236 237 232 225 220 210 207 196 191 190 191 199 207 214 215 219 229 237 245 251 258 261 262 263 263 264 265 267 269 271 272 273 273 274 274 274 275 276 277 278 277 277 278
256 257 258 259 260 261 262 263 264 264 264 264 264 262 261 259 258 257 256 254 251 247 244 244 245 245 242 241 240 237 232 231 232 227 230 236 233 236 240 236 228 227 233 235 237 240 241 242 242 240 236 233 226 218 206 196 192 192 198 188 199 229 240 247 253 255 257 259 261 263 264 265 266 269 272 274 274 274 275 275 275 275 273 272 273 275 277 276
256 257 258 260 261 261 262 262 263 263 263 263 263 262 260 258 256 255 254 254 252 248 244 242 243 243 242 241 240 240 238 236 236 233 233 235 235 235 240 244 237 228 232 235 237 237 239 241 242 243 244 241 238 237 230 220 211 205 204 192 201 227 236 243 248 248 252 257 259 262 264 266 268 270 273 275 275 277 280 281 281 279 277 274 272 274 276 274
257 258 259 260 261 262 262 262 262 262 262 262 261 260 259 256 254 252 252 252 252 250 246 243 242 242 241 241 240 241 241 240 241 239 236 236 237 237 237 242 243 235 231 236 239 239 238 240 240 240 241 241 240 242 238 232 226 219 219 216 218 228 231 239 246 248 254 258 259 263 266 269 271 272 274 275 278 281 283 285 285 283 282 280 277 276 271 264
258 259 260 261 262 262 263 263 262 262 261 261 260 259 257 255 253 251 250 250 250 251 248 244 243 242 242 241 240 240 241 242 244 244 242 240 239 240 237 239 244 242 236 236 241 242 240 240 241 240 239 241 241 241 242 239 234 228 228 228 229 233 233 237 245 250 254 257 260 265 269 272 273 275 278 281 285 286 287 289 287 285 286 283 282 281 272 260
259 260 261 262 263 263 263 263 262 262 261 260 259 257 256 254 252 250 249 248 248 248 249 246 245 244 243 243 241 239 240 241 245 247 247 246 243 242 242 241 243 245 242 237 238 242 243 243 243 244 243 243 241 239 241 242 240 237 236 236 235 238 237 237 244 250 254 258 263 268 272 274 277 280 283 287 289 291 292 294 289 282 283 286 288 287 278 266
261 262 262 262 263 263 262 262 262 262 261 260 258 257 256 254 252 250 249 248 246 246 247 247 246 246 245 245 245 242 240 240 245 248 249 250 248 245 245 244 244 245 246 242 239 240 244 246 246 247 247 244 241 239 240 242 242 243 243 244 242 243 245 245 248 253 258 263 265 269 274 276 278 281 285 288 288 291 294 296 294 281 281 290 291 289 285 272
262 263 263 263 263 263 262 262 261 261 261 260 258 257 256 254 253 251 249 248 247 246 246 246 247 247 247 247 247 247 243 240 244 248 249 250 250 249 247 247 247 246 247 247 243 241 243 245 246 245 245 245 244 242 242 242 242 243 244 247 248 247 250 252 253 256 261 265 266 268 273 275 278 280 284 285 286 290 293 299 303 293 291 300 295 293 294 278
262 263 263 263 263 263 262 261 261 261 260 260 259 257 256 255 254 253 251 250 249 247 246 246 247 247 248 248 248 249 247 243 244 248 249 249 250 251 249 249 249 248 247 247 247 246 244 243 243 243 243 246 248 244 243 243 240 241 242 245 249 250 252 254 256 257 261 264 266 267 269 272 276 279 281 283 285 290 295 304 310 306 303 309 306 302 297 276
263 263 263 263 263 263 262 261 261 260 260 260 260 259 258 257 255 255 254 253 251 250 248 247 248 248 249 250 249 250 249 246 245 247 249 249 249 250 251 250 250 250 249 248 249 249 246 241 240 242 243 245 246 245 243 243 242 240 241 243 247 250 253 255 256 257 260 263 265 265 266 269 272 276 279 280 284 290 296 307 319 321 314 312 313 311 298 272
264 263 263 263 263 263 262 261 261 261 261 261 260 260 259 259 258 257 256 255 254 253 251 250 249 249 250 250 251 252 251 248 246 246 248 249 249 249 250 251 251 251 251 249 249 249 247 243 240 242 244 244 245 245 244 244 244 242 240 242 245 249 251 253 256 258 261 262 265 266 266 268 270 274 277 279 285 291 298 312 324 320 313 305 304 306 297 270
265 264 264 264 264 264 264 263 262 261 261 262 261 261 260 260 259 258 258 257 256 255 254 252 251 251 251 251 251 252 251 250 248 247 248 249 249 249 250 251 251 251 251 250 249 247 246 245 243 243 243 243 243 244 243 244 245 243 242 243 244 248 250 251 253 258 260 260 263 266 266 268 269 273 275 278 286 288 295 308 314 305 298 289 282 286 291 270
264 264 264 264 264 264 264 263 262 262 262 262 262 261 261 260 260 259 258 258 258 257 256 255 254 253 252 251 251 253 252 251 250 249 248 249 249 249 250 250 250 250 250 250 249 248 247 246 245 244 243 244 245 245 245 244 246 245 243 243 242 247 251 250 251 255 256 258 261 264 266 268 268 271 271 276 283 284 290 299 297 295 282 278 271 263 280 273
264 264 264 264 264 264 264 264 263 262 261 261 262 261 261 261 260 259 259 258 258 258 257 257 256 255 255 253 252 254 254 252 252 251 249 249 250 250 249 249 249 250 250 250 250 249 248 246 245 244 245 246 246 247 247 246 247 245 242 242 241 243 249 250 249 253 256 256 258 262 265 268 268 267 265 273 280 279 286 292 293 299 277 272 266 246 261 270
265 264 264 263 263 263 264 264 263 263 262 261 261 261 261 261 260 260 259 259 258 258 258 258 257 256 256 255 253 254 255 253 252 252 250 250 250 249 249 249 250 250 249 249 249 248 247 246 245 245 246 247 247 249 249 248 247 245 243 241 240 241 247 250 249 251 255 255 257 260 262 264 265 264 264 269 274 276 282 287 292 306 286 262 257 240 239 255
266 265 264 263 262 262 263 263 263 262 262 261 261 261 261 260 260 260 259 259 258 257 257 257 257 256 256 256 254 253 254 253 252 251 251 251 250 250 249 249 250 250 249 249 249 249 248 247 247 247 247 248 249 249 248 247 247 246 245 243 242 242 247 251 249 248 252 253 254 254 255 259 260 262 263 265 268 271 276 280 288 301 294 252 246 234 229 239
266 265 265 264 263 262 262 262 262 262 262 261 261 261 261 261 260 260 259 259 258 257 257 257 257 256 256 256 254 253 254 253 252 252 251 250 250 249 249 249 250 251 251 250 250 250 250 249 249 248 248 248 248 248 248 248 249 249 249 246 244 244 246 250 249 246 250 252 251 251 252 255 257 259 262 264 266 267 270 276 282 295 293 254 240 231 225 227
266 266 265 264 263 263 262 262 262 262 262 261 261 260 261 261 260 260 260 259 258 258 257 257 257 257 256 256 255 253 253 252 252 252 250 249 250 250 250 250 251 252 251 251 251 251 252 252 250 248 248 248 248 249 250 251 251 251 250 248 245 243 245 249 249 245 247 250 251 252 251 251 253 255 257 260 262 263 266 272 276 288 289 255 242 236 229 219
266 265 265 264 263 262 261 261 261 262 261 261 260 260 260 260 259 259 259 259 259 258 258 257 257 257 256 255 255 253 252 253 253 252 251 250 251 251 251 251 252 253 252 252 253 253 253 252 250 248 248 249 250 251 251 252 251 250 249 248 245 242 243 247 248 243 242 246 249 249 248 249 250 251 252 256 259 259 262 267 270 278 278 254 244 240 233 216
266 266 265 264 263 262 261 260 260 260 260 260 260 259 258 258 258 258 258 259 259 258 258 257 256 256 255 254 254 254 252 253 253 252 252 251 251 252 251 251 252 253 253 253 254 253 251 250 249 250 250 250 251 251 251 250 249 248 247 246 244 241 240 242 244 241 237 239 243 245 245 246 248 249 250 254 256 256 256 260 263 267 268 253 241 238 233 216
266 266 265 265 264 263 262 260 259 259 259 259 259 259 258 257 257 257 256 256 258 257 256 256 255 254 255 254 252 253 252 251 251 252 252 252 251 251 251 251 251 252 253 253 253 251 250 250 251 251 251 251 250 250 250 250 249 247 245 244 243 240 238 238 241 240 234 232 237 240 241 242 243 247 249 251 255 256 254 255 257 260 261 253 245 244 239 225
266 266 265 265 264 263 262 261 260 259 259 258 258 258 258 257 257 256 255 254 256 257 255 254 254 253 253 253 251 252 252 250 250 251 251 251 250 250 250 250 250 251 253 252 251 251 251 252 252 251 250 249 249 249 249 249 248 246 245 243 242 240 239 238 240 241 238 233 235 236 237 240 242 244 246 247 251 253 251 250 251 252 252 250 244 240 240 233
267 266 265 264 264 263 262 261 260 259 258 258 258 257 257 257 256 256 255 253 253 256 255 252 252 252 252 252 252 252 251 250 250 249 250 250 249 249 248 249 250 251 251 250 249 250 251 252 251 250 250 249 249 249 249 248 248 247 245 243 242 241 240 240 240 243 242 237 234 232 232 238 240 241 243 243 244 247 248 248 246 246 247 246 235 227 232 235
266 266 265 265 264 264 263 261 261 260 258 257 257 257 256 256 256 255 255 254 252 254 255 253 251 251 253 253 252 251 251 251 251 249 249 250 250 249 248 248 250 249 249 249 248 250 253 253 252 251 250 250 249 249 248 247 247 247 245 243 243 242 240 240 240 241 244 242 237 232 231 236 239 239 241 241 241 243 245 247 244 241 243 240 235 228 223 227
266 265 265 264 263 263 263 262 261 260 259 258 256 256 256 255 255 255 255 254 252 251 254 255 253 251 252 253 253 251 251 251 250 249 248 249 249 249 248 248 249 249 249 249 248 250 252 251 250 248 247 248 248 247 246 246 246 246 246 245 245 243 240 240 239 238 242 243 239 234 232 236 238 238 239 239 239 240 241 243 243 240 239 236 236 235 225 220
265 265 264 263 262 262 261 261 261 260 259 258 257 256 255 255 254 254 254 253 252 251 252 254 254 252 251 252 253 252 250 249 249 248 246 246 247 247 248 247 247 247 247 247 247 247 248 249 249 248 247 248 248 248 248 248 248 248 247 246 245 242 238 237 237 235 239 242 239 235 233 234 236 235 236 236 236 238 237 237 239 237 237 236 237 239 235 226
266 265 264 264 263 262 261 261 260 260 259 258 257 256 255 254 254 253 253 252 252 251 250 251 253 253 251 250 251 252 250 247 248 248 246 246 247 247 247 246 245 245 246 246 246 247 249 250 251 251 250 250 250 249 249 249 249 247 245 243 241 238 235 234 233 232 236 238 237 234 231 232 234 233 234 236 235 234 234 231 233 234 233 234 235 239 241 235
266 265 264 264 263 262 261 260 260 259 259 258 257 256 255 254 253 253 252 252 252 250 248 248 250 251 251 249 249 250 251 248 247 248 247 246 245 244 244 244 244 245 246 246 247 248 250 250 252 253 251 249 248 248 247 247 247 246 243 241 240 238 236 234 231 230 231 230 229 228 225 226 231 230 230 233 233 232 231 228 228 231 231 229 228 235 242 240
267 266 265 264 263 263 262 261 260 259 259 258 258 257 255 254 253 252 252 252 251 249 247 246 247 249 250 249 248 249 250 250 247 247 247 246 245 244 244 245 246 247 247 248 248 249 250 250 251 250 247 244 244 244 244 244 245 244 242 242 240 238 236 233 230 229 227 224 223 223 220 220 226 226 224 228 232 232 229 225 225 227 229 229 226 232 242 243
269 268 267 266 265 264 263 263 262 261 260 259 258 257 256 255 253 252 252 250 249 248 247 246 246 247 249 250 250 249 249 249 247 246 246 245 245 244 244 243 244 244 245 246 245 245 245 245 244 243 242 242 242 242 243 244 246 245 243 242 240 237 235 232 230 227 226 226 226 227 224 220 224 225 220 223 230 231 228 224 224 225 227 229 228 233 240 241
272 271 270 269 268 267 266 265 264 263 262 261 260 259 257 256 254 253 251 250 248 248 248 246 245 245 246 247 248 247 246 246 246 244 243 243 243 242 241 240 240 240 240 239 238 239 240 240 240 241 242 242 241 242 242 244 244 244 242 240 237 234 233 231 228 226 226 228 229 230 229 224 226 227 221 221 229 230 227 224 224 225 227 228 230 234 237 238
275 274 273 272 271 269 268 267 266 265 264 262 261 260 259 258 256 253 251 249 248 248 247 247 244 243 243 243 244 244 244 243 243 242 242 242 241 241 241 240 240 239 239 239 239 239 240 241 240 240 240 239 238 238 238 239 240 241 241 239 235 232 232 231 229 228 228 230 231 232 232 228 228 229 223 222 228 230 227 225 225 225 226 229 232 234 235 236
277 277 276 275 273 272 270 268 267 265 264 263 261 260 259 258 256 254 251 250 248 247 246 246 245 241 239 239 240 241 242 242 242 241 241 241 241 240 240 239 238 238 238 239 240 240 241 240 237 236 236 236 235 235 236 237 239 240 241 240 234 231 231 231 230 230 231 233 234 233 232 230 230 231 226 222 227 229 225 225 227 226 227 229 230 232 234 235
278 277 276 275 274 273 272 270 268 266 264 263 261 260 258 257 255 253 252 251 250 248 245 244 243 241 238 237 238 239 239 240 240 239 239 239 239 238 237 236 236 235 235 237 237 237 238 238 237 237 238 238 238 239 238 238 239 240 242 239 232 228 229 229 230 233 234 235 235 232 229 227 227 229 226 222 226 228 225 224 226 226 226 227 229 231 233 234
278 277 276 275 275 273 272 270 268 266 264 262 261 259 257 255 254 253 253 252 250 247 245 243 241 241 239 237 236 236 236 237 237 237 237 237 237 236 234 234 233 233 233 234 234 233 233 235 235 235 237 237 235 236 237 237 238 240 241 238 233 231 231 232 234 236 236 236 234 231 229 225 225 227 224 221 223 224 223 223 224 225 225 225 227 230 231 232
280 278 277 275 274 273 271 269 267 264 262 260 258 257 255 253 253 252 252 251 248 246 243 241 240 239 238 237 236 235 234 235 236 236 236 236 236 235 234 233 233 233 234 234 235 234 233 235 235 233 234 234 233 233 235 235 236 237 238 237 234 232 231 233 234 233 232 233 232 230 227 224 225 226 223 220 219 219 219 219 220 222 222 222 224 225 227 229
284 282 280 277 275 273 272 269 266 263 260 257 255 253 252 252 252 252 251 249 247 244 241 240 238 236 236 236 236 235 234 235 236 235 235 235 234 234 233 233 233 233 234 235 236 235 233 234 235 232 231 233 232 233 235 234 233 233 232 232 228 225 226 228 229 229 230 234 235 231 228 226 226 226 224 222 220 218 218 218 217 219 220 220 221 221 223 226
287 285 283 281 278 276 273 270 267 264 260 256 253 251 249 249 249 249 249 247 245 243 240 239 238 236 235 235 235 234 232 233 234 234 234 235 234 233 233 232 231 231 232 232 232 232 230 231 234 232 230 233 234 233 233 232 230 230 228 224 221 218 219 221 225 227 230 235 238 233 229 227 226 226 225 222 220 219 219 219 218 218 220 220 220 220 221 223
289 287 285 284 282 279 276 273 269 265 261 258 254 250 246 245 244 244 245 245 243 242 240 239 238 236 235 235 235 234 231 232 232 232 233 234 234 233 234 233 231 231 231 230 229 230 229 228 232 232 228 232 233 229 228 227 226 227 224 219 216 213 211 212 214 219 222 229 235 233 226 222 223 224 223 220 219 218 217 218 218 218 220 220 219 220 220 219
290 288 287 285 284 281 278 275 271 267 263 259 254 250 246 242 240 239 239 240 240 239 238 238 237 235 234 233 233 233 230 230 231 231 231 233 233 232 233 233 232 231 230 229 228 229 228 226 230 232 227 227 229 225 224 224 223 224 222 217 214 212 209 209 209 212 217 225 234 234 226 219 221 224 222 220 218 216 215 216 217 217 219 220 219 219 219 217
292 290 288 287 285 283 280 276 273 269 265 260 256 251 246 241 237 236 235 235 235 236 236 236 235 234 232 231 231 230 228 228 230 231 231 232 232 230 230 230 229 229 229 228 227 228 227 225 229 231 226 224 227 225 223 223 222 223 223 217 214 213 211 211 212 213 218 226 234 237 231 224 224 225 223 222 220 217 215 215 216 217 218 219 219 218 219 217
296 294 291 289 287 284 281 278 274 270 266 262 257 252 246 241 236 234 232 232 231 232 233 233 234 233 231 230 230 229 227 227 228 230 231 231 231 229 228 227 227 226 226 227 228 229 229 227 228 230 227 224 226 227 225 225 224 223 223 218 214 214 212 212 215 216 221 228 236 241 238 229 227 228 226 223 221 219 218 217 216 216 216 219 219 218 218 218
301 297 294 291 288 286 282 279 275 271 267 262 258 253 247 241 236 232 231 229 228 228 229 230 232 233 231 229 228 228 227 227 227 228 229 229 228 227 227 227 226 225 225 226 227 229 230 228 227 230 229 225 226 228 226 225 223 221 221 218 214 213 212 213 214 215 219 225 232 241 240 232 231 233 229 224 220 218 218 218 217 216 216 218 218 218 219 219
305 302 298 295 291 288 284 280 276 272 268 262 257 252 247 241 236 232 229 228 226 226 226 226 228 230 230 228 226 226 225 226 227 227 227 226 226 224 224 225 226 225 225 225 225 225 225 225 224 226 228 225 223 224 223 220 219 217 218 217 214 212 212 212 212 212 216 218 223 234 237 232 231 232 228 223 220 217 217 217 216 215 216 217 217 218 220 220
309 306 303 299 296 292 288 283 277 272 268 263 257 251 246 241 236 232 229 226 225 224 224 223 224 226 228 227 225 224 224 225 225 226 225 224 224 224 223 223 224 224 224 224 224 223 223 223 221 222 225 223 221 223 223 219 217 216 215 215 213 212 211 210 210 211 213 213 217 227 234 234 231 229 227 224 220 218 217 216 215 215 214 215 216 217 219 220
314 310 306 302 298 295 290 286 280 275 269 263 257 251 245 240 236 231 228 225 223 223 222 222 222 223 225 226 224 223 223 224 225 224 222 221 221 222 222 222 222 223 223 223 224 223 223 223 222 220 222 222 220 221 222 218 216 216 215 214 212 211 210 208 208 210 210 210 214 221 230 234 232 227 225 223 221 219 219 217 217 215 214 214 215 216 217 219
318 315 312 308 303 299 294 289 284 277 271 264 257 251 244 239 235 231 228 224 222 222 221 221 221 222 223 224 223 222 222 223 224 224 222 220 219 220 220 221 220 221 222 222 222 223 222 222 222 221 222 222 219 217 218 217 215 215 215 213 212 211 208 206 207 209 208 208 211 217 225 232 233 228 223 222 223 221 219 217 215 215 215 215 216 217 217 218
321 319 316 313 309 305 300 294 288 281 273 265 258 251 243 238 234 231 228 224 222 221 220 220 220 220 221 222 222 221 221 221 223 223 221 219 218 219 220 220 220 220 221 221 221 221 221 221 221 221 222 223 220 217 217 216 214 214 215 213 211 210 208 207 208 208 207 207 209 214 220 227 232 230 221 216 219 219 218 217 213 212 214 214 215 217 217 218
324 321 318 315 312 309 304 297 291 285 277 266 257 250 243 237 233 230 228 225 222 221 219 219 218 219 220 220 220 221 220 220 220 221 221 219 217 218 221 220 220 221 221 221 221 220 221 222 221 221 221 222 221 217 216 216 214 213 213 211 210 209 209 208 209 208 207 206 208 212 217 223 230 232 223 211 213 215 215 216 212 209 210 211 213 216 217 218
327 324 322 318 314 310 306 300 294 288 280 270 258 250 243 237 234 231 228 225 223 221 219 218 218 218 218 219 219 220 220 219 218 218 219 219 217 218 220 220 219 220 220 221 221 221 222 222 221 220 219 220 219 216 215 215 214 214 213 211 209 208 209 209 209 208 206 206 206 210 215 217 223 230 225 212 210 213 213 214 213 209 209 210 211 213 216 217
Height
10969 10969 10969 10969 10969 10970 10970 10970 10971 10971 10972 10972 10973 10974 10974 10975 10976 10976 10976 10977 10977 10977 10977 10977 10978 10978 10979 10979 10979 10980 10980 10980 10980 10980 10980 10980 10980 10981 10981 10981 10981 10981 10981 10982 10982 10983 10984 10984 10985 10986 10987 10988 10989 10991 10992 10995 10997 10998 10999 11002 11005 11006 11002 10998 10996 10996 10996 10997 10997 10997 10997 10997 10996 10995 10995 10994 10993 10993 10992 10991 10991 10990 10989 10988 10987 10985 10985 10984
10965 10966 10966 10966 10966 10967 10967 10968 10968 10968 10968 10969 10970 10971 10972 10972 10973 10973 10973 10974 10975 10975 10975 10975 10976 10976 10977 10977 10978 10978 10978 10978 10978 10979 10979 10979 10979 10980 10980 10980 10980 10980 10980 10981 10981 10982 10982 10983 10984 10985 10986 10986 10988 10989 10990 10992 10994 10995 10996 10999 11002 11003 11000 10996 10993 10993 10994 10994 10995 10995 10994 10995 10993 10992 10991 10991 10990 10990 10989 10988 10988 10987 10986 10985 10983 10982 10981 10981
10962 10962 10963 10963 10963 10964 10964 10964 10965 10965 10965 10966 10966 10967 10968 10969 10970 10970 10970 10971 10972 10973 10973 10973 10973 10973 10974 10975 10975 10976 10976 10977 10977 10977 10977 10977 10978 10978 10979 10979 10979 10979 10980 10980 10980 10981 10981 10982 10983 10983 10984 10985 10986 10987 10989 10990 10992 10993 10994 10996 10999 11000 10997 10994 10992 10992 10992 10992 10992 10992 10992 10992 10991 10989 10988 10988 10987 10987 10986 10985 10985 10984 10984 10983 10979 10978 10978 10978
10958 10959 10959 10960 10960 10960 10961 10961 10961 10962 10962 10962 10963 10964 10965 10966 10967 10966 10966 10967 10968 10970 10970 10970 10970 10971 10972 10972 10973 10973 10974 10974 10975 10976 10976 10975 10976 10977 10977 10977 10978 10978 10978 10979 10979 10980 10980 10981 10981 10982 10983 10984 10985 10986 10987 10989 10990 10991 10992 10994 10996 10996 10995 10994 10992 10992 10991 10990 10990 10989 10989 10989 10988 10987 10986 10986 10985 10984 10983 10983 10982 10981 10981 10979 10977 10976 10975 10975
10955 10955 10956 10956 10956 10956 10957 10957 10957 10958 10958 10959 10959 10960 10962 10963 10963 10963 10963 10963 10964 10966 10967 10968 10968 10968 10969 10969 10970 10970 10971 10972 10972 10973 10974 10974 10974 10975 10975 10975 10976 10977 10977 10977 10978 10978 10979 10979 10980 10981 10981 10982 10983 10984 10985 10987 10988 10989 10990 10992 10993 10993 10993 10992 10991 10990 10990 10989 10988 10987 10987 10987 10986 10985 10984 10984 10984 10983 10981 10981 10979 10979 10978 10976 10975 10974 10973 10973
10951 10951 10952 10952 10952 10952 10952 10953 10953 10954 10954 10955 10955 10957 10958 10959 10960 10960 10960 10960 10960 10962 10964 10964 10965 10965 10965 10966 10967 10967 10968 10969 10969 10970 10971 10972 10972 10973 10973 10973 10973 10975 10975 10976 10976 10977 10977 10978 10978 10979 10980 10981 10981 10982 10983 10985 10986 10987 10988 10989 10990 10991 10991 10990 10989 10988 10987 10987 10986 10985 10985 10984 10984 10983 10983 10982 10982 10981 10979 10979 10978 10977 10976 10974 10973 10972 10971 10971
10947 10947 10947 10947 10947 10948 10948 10948 10949 10949 10950 10950 10951 10953 10954 10955 10956 10956 10956 10957 10957 10958 10959 10961 10961 10961 10962 10963 10963 10965 10965 10966 10967 10967 10968 10969 10970 10970 10971 10971 10970 10971 10973 10974 10974 10975 10975 10976 10976 10977 10978 10979 10980 10980 10981 10982 10983 10985 10986 10987 10988 10988 10989 10988 10987 10986 10985 10984 10984 10983 10983 10982 10981 10981 10981 10980 10980 10979 10978 10978 10977 10976 10974 10972 10971 10970 10969 10969
10942 10942 10942 10942 10942 10943 10943 10944 10944 10945 10945 10946 10947 10948 10949 10950 10951 10952 10953 10953 10954 10954 10955 10956 10957 10958 10958 10959 10960 10961 10962 10963 10964 10963 10964 10966 10967 10968 10968 10969 10969 10969 10970 10972 10972 10972 10972 10973 10974 10975 10976 10976 10977 10978 10979 10980 10981 10982 10983 10984 10985 10985 10985 10985 10984 10983 10983 10982 10982 10982 10981 10980 10979 10979 10979 10979 10978 10977 10976 10976 10976 10975 10973 10971 10969 10967 10966 10966
10937 10937 10937 10937 10937 10937 10938 10939 10939 10940 10940 10941 10942 10943 10944 10945 10946 10948 10948 10949 10950 10951 10951 10952 10953 10953 10954 10955 10955 10957 10959 10960 10961 10960 10961 10962 10963 10964 10965 10966 10966 10966 10967 10968 10969 10970 10970 10971 10972 10972 10973 10973 10974 10975 10976 10977 10978 10979 10980 10981 10982 10982 10982 10982 10981 10981 10980 10980 10980 10980 10979 10978 10977 10977 10977 10977 10976 10976 10975 10975 10975 10974 10972 10970 10968 10966 10964 10964
10932 10932 10932 10932 10932 10932 10933 10934 10934 10935 10935 10936 10937 10938 10939 10940 10941 10943 10944 10944 10945 10947 10947 10948 10949 10949 10950 10951 10951 10952 10954 10957 10958 10957 10957 10958 10959 10960 10961 10962 10963 10964 10964 10965 10966 10966 10967 10968 10969 10970 10970 10969 10970 10973 10973 10974 10975 10976 10977 10978 10978 10979 10979 10979 10979 10978 10978 10978 10978 10977 10977 10976 10975 10975 10976 10975 10975 10974 10974 10974 10973 10972 10970 10968 10967 10965 10963 10962
10926 10926 10927 10927 10927 10927 10927 10928 10929 10929 10930 10931 10932 10933 10934 10935 10936 10937 10939 10939 10940 10942 10943 10944 10945 10945 10946 10946 10947 10947 10949 10953 10954 10953 10954 10954 10955 10956 10957 10958 10959 10961 10962 10962 10962 10963 10965 10966 10966 10966 10966 10966 10967 10969 10970 10970 10972 10973 10974 10975 10975 10976 10976 10976 10976 10976 10976 10976 10975 10975 10975 10974 10974 10974 10974 10974 10973 10973 10973 10973 10971 10970 10968 10966 10965 10964 10962 10961
10920 10921 10921 10921 10921 10921 10921 10922 10923 10924 10924 10925 10926 10927 10928 10929 10930 10932 10933 10933 10935 10936 10938 10940 10940 10941 10941 10941 10943 10942 10944 10949 10950 10949 10949 10950 10951 10952 10953 10954 10955 10956 10958 10959 10959 10960 10961 10962 10962 10961 10962 10963 10964 10965 10966 10967 10968 10970 10971 10972 10972 10973 10973 10973 10973 10973 10974 10974 10973 10973 10973 10973 10973 10972 10973 10972 10972 10972 10972 10971 10969 10968 10967 10964 10963 10963 10962 10961
10914 10914 10915 10915 10915 10914 10914 10915 10917 10918 10918 10919 10920 10921 10922 10923 10924 10925 10926 10927 10929 10930 10932 10934 10935 10936 10936 10937 10939 10937 10939 10943 10945 10945 10945 10946 10947 10948 10949 10950 10951 10952 10953 10955 10956 10957 10958 10958 10958 10958 10959 10960 10961 10961 10962 10964 10965 10967 10968 10969 10970 10970 10971 10970 10971 10972 10972 10972 10971 10971 10972 10972 10971 10971 10971 10971 10970 10970 10970 10970 10968 10966 10965 10963 10962 10963 10962 10962
10907 10908 10908 10908 10908 10907 10907 10908 10910 10911 10912 10912 10912 10914 10915 10916 10917 10919 10920 10921 10922 10923 10926 10927 10929 10931 10930 10932 10934 10932 10933 10937 10939 10941 10941 10941 10942 10943 10945 10946 10947 10948 10949 10950 10952 10953 10953 10954 10954 10955 10955 10956 10957 10957 10958 10960 10961 10963 10965 10966 10967 10968 10967 10968 10969 10970 10970 10970 10969 10969 10969 10970 10970 10969 10969 10969 10969 10969 10969 10969 10967 10966 10965 10963 10962 10963 10963 10963
10900 10900 10901 10901 10902 10900 10899 10901 10902 10904 10905 10905 10905 10906 10908 10908 10910 10911 10913 10914 10915 10916 10918 10920 10923 10924 10924 10927 10929 10926 10928 10932 10933 10936 10936 10936 10937 10939 10940 10941 10942 10943 10944 10945 10947 10948 10950 10950 10951 10951 10950 10951 10953 10952 10955 10957 10957 10960 10962 10962 10964 10965 10964 10965 10966 10967 10967 10968 10968 10967 10967 10968 10968 10967 10967 10967 10967 10967 10968 10968 10967 10966 10964 10963 10962 10962 10964 10964
10891 10892 10893 10894 10894 10893 10891 10892 10894 10895 10897 10898 10898 10898 10900 10901 10902 10904 10906 10907 10908 10909 10911 10913 10915 10917 10918 10920 10922 10921 10923 10926 10928 10929 10930 10931 10933 10934 10935 10936 10936 10937 10939 10941 10942 10944 10945 10946 10947 10947 10946 10948 10948 10948 10952 10954 10953 10955 10957 10959 10961 10962 10962 10962 10963 10964 10964 10966 10965 10965 10965 10966 10966 10966 10966 10966 10966 10966 10966 10967 10966 10965 10964 10963 10962 10962 10963 10964
10883 10884 10885 10886 10887 10886 10884 10884 10885 10886 10888 10890 10890 10890 10891 10893 10894 10896 10898 10899 10900 10902 10904 10906 10908 10910 10910 10912 10917 10917 10915 10919 10922 10921 10924 10927 10927 10928 10930 10931 10931 10932 10934 10935 10937 10938 10940 10941 10942 10943 10942 10944 10944 10944 10949 10949 10948 10950 10953 10956 10957 10959 10959 10958 10960 10962 10961 10963 10963 10963 10964 10964 10964 10964 10964 10964 10964 10964 10965 10966 10965 10964 10964 10963 10961 10961 10962 10963
10874 10874 10876 10877 10878 10879 10876 10876 10877 10877 10879 10881 10881 10881 10882 10884 10885 10887 10889 10890 10892 10894 10896 10899 10900 10901 10903 10905 10909 10910 10909 10913 10914 10915 10919 10921 10921 10922 10925 10926 10925 10926 10928 10930 10931 10933 10934 10936 10938 10939 10939 10939 10939 10941 10943 10941 10942 10946 10949 10952 10954 10956 10957 10955 10957 10958 10958 10960 10961 10961 10962 10962 10962 10962 10963 10963 10963 10963 10963 10964 10964 10962 10962 10961 10960 10960 10960 10961
10864 10864 10866 10867 10869 10870 10868 10867 10868 10868 10869 10871 10873 10872 10873 10875 10876 10879 10881 10881 10883 10886 10889 10892 10891 10892 10896 10896 10900 10903 10903 10905 10907 10910 10913 10914 10915 10917 10919 10920 10920 10920 10923 10924 10925 10927 10928 10931 10933 10933 10933 10933 10934 10935 10935 10936 10939 10943 10944 10948 10951 10953 10953 10951 10952 10955 10956 10957 10958 10959 10960 10960 10960 10960 10960 10961 10961 10962 10962 10962 10962 10961 10959 10959 10959 10959 10959 10960
10854 10853 10855 10856 10858 10860 10860 10858 10858 10859 10859 10861 10863 10864 10864 10866 10867 10870 10871 10871 10874 10877 10880 10884 10881 10884 10889 10887 10891 10897 10895 10896 10901 10903 10906 10908 10908 10910 10913 10914 10914 10914 10915 10917 10919 10921 10924 10926 10926 10925 10927 10928 10929 10930 10931 10933 10937 10939 10940 10943 10946 10948 10949 10947 10948 10951 10953 10954 10954 10955 10957 10957 10957 10958 10958 10959 10960 10960 10961 10961 10961 10960 10958 10958 10958 10959 10959 10960
10843 10842 10843 10844 10846 10848 10849 10849 10849 10849 10849 10850 10852 10854 10856 10855 10856 10862 10862 10861 10865 10867 10870 10874 10873 10875 10878 10879 10882 10886 10887 10891 10894 10895 10898 10901 10902 10904 10907 10906 10907 10907 10907 10911 10914 10917 10919 10918 10916 10918 10922 10924 10925 10926 10927 10929 10932 10933 10934 10937 10941 10943 10943 10942 10943 10946 10950 10951 10951 10952 10953 10954 10953 10955 10956 10957 10958 10959 10959 10959 10959 10959 10958 10958 10958 10959 10960 10960
10832 10831 10831 10831 10834 10836 10837 10838 10839 10838 10839 10840 10841 10843 10846 10846 10846 10851 10854 10853 10854 10857 10861 10863 10865 10865 10865 10871 10874 10874 10881 10884 10884 10887 10890 10892 10896 10897 10897 10899 10901 10898 10900 10907 10909 10911 10910 10907 10908 10914 10918 10920 10921 10922 10921 10923 10925 10927 10929 10932 10935 10937 10936 10937 10937 10940 10945 10947 10947 10948 10949 10950 10950 10952 10954 10955 10956 10956 10957 10958 10958 10958 10957 10957 10958 10958 10960 10960
10821 10819 10819 10819 10820 10823 10824 10826 10828 10828 10828 10829 10830 10832 10834 10835 10836 10839 10844 10847 10843 10846 10853 10852 10854 10857 10854 10861 10864 10864 10873 10876 10875 10880 10880 10884 10889 10888 10889 10893 10892 10890 10896 10902 10902 10902 10901 10899 10905 10912 10914 10915 10915 10915 10915 10917 10919 10921 10924 10926 10929 10930 10930 10932 10932 10932 10938 10942 10943 10944 10945 10947 10949 10950 10952 10953 10953 10954 10955 10956 10957 10957 10957 10957 10957 10958 10959 10959
10808 10807 10807 10807 10806 10809 10812 10812 10814 10817 10817 10818 10819 10821 10822 10823 10826 10828 10833 10839 10836 10834 10840 10842 10844 10848 10845 10848 10854 10859 10864 10865 10868 10872 10871 10875 10880 10880 10883 10884 10882 10887 10893 10893 10893 10894 10893 10895 10903 10906 10907 10908 10908 10909 10910 10910 10912 10914 10918 10921 10922 10923 10926 10928 10926 10927 10934 10938 10938 10939 10942 10944 10947 10948 10949 10950 10951 10951 10953 10955 10955 10956 10956 10956 10956 10957 10957 10958
10795 10793 10793 10794 10793 10795 10798 10799 10800 10803 10805 10806 10807 10809 10810 10811 10814 10817 10820 10827 10831 10824 10824 10833 10836 10837 10835 10837 10847 10852 10851 10854 10861 10864 10863 10867 10870 10872 10874 10874 10876 10884 10885 10883 10885 10887 10887 10891 10897 10899 10900 10901 10903 10904 10904 10904 10906 10909 10913 10915 10915 10919 10923 10923 10923 10926 10929 10931 10933 10936 10940 10942 10943 10944 10946 10947 10948 10948 10950 10952 10954 10954 10955 10956 10956 10958 10958 10959
10782 10779 10778 10781 10780 10779 10781 10785 10786 10787 10791 10793 10795 10796 10797 10799 10801 10805 10808 10813 10821 10817 10811 10819 10826 10827 10826 10829 10837 10838 10839 10848 10852 10853 10857 10859 10860 10862 10865 10868 10872 10876 10874 10874 10879 10882 10882 10886 10890 10892 10893 10895 10898 10898 10898 10899 10901 10904 10907 10908 10910 10915 10919 10918 10920 10924 10923 10923 10928 10933 10937 10938 10939 10941 10942 10943 10944 10946 10948 10950 10952 10953 10954 10954 10956 10958 10959 10960
10767 10764 10763 10764 10765 10765 10764 10767 10770 10771 10775 10778 10782 10783 10783 10787 10788 10791 10795 10799 10805 10809 10804 10804 10812 10818 10819 10820 10823 10825 10834 10841 10838 10844 10852 10849 10849 10852 10856 10862 10865 10866 10865 10866 10875 10878 10875 10877 10881 10884 10886 10890 10892 10891 10891 10894 10897 10899 10900 10904 10907 10910 10914 10914 10915 10919 10917 10917 10924 10930 10934 10934 10935 10937 10937 10938 10941 10943 10945 10947 10949 10951 10951 10952 10954 10956 10958 10959
10750 10748 10747 10745 10748 10749 10748 10750 10752 10754 10758 10761 10766 10769 10770 10773 10775 10777 10781 10783 10789 10798 10798 10793 10795 10805 10811 10811 10809 10812 10825 10830 10826 10834 10842 10838 10840 10844 10848 10855 10856 10855 10855 10859 10870 10869 10864 10870 10874 10876 10883 10886 10885 10884 10887 10892 10893 10893 10897 10901 10903 10904 10907 10907 10910 10914 10912 10912 10920 10926 10928 10929 10929 10930 10931 10934 10938 10939 10941 10944 10946 10948 10949 10949 10951 10953 10955 10956
10733 10732 10730 10729 10730 10731 10732 10734 10734 10736 10739 10743 10748 10753 10757 10759 10762 10764 10765 10770 10776 10782 10787 10785 10783 10790 10798 10802 10798 10798 10809 10818 10817 10823 10830 10831 10833 10836 10840 10844 10844 10844 10847 10855 10862 10859 10859 10867 10867 10871 10881 10881 10878 10880 10885 10888 10886 10887 10893 10895 10895 10897 10900 10901 10905 10908 10906 10911 10917 10918 10920 10922 10921 10923 10928 10931 10933 10934 10936 10940 10943 10945 10947 10947 10948 10951 10953 10953
10716 10715 10713 10713 10713 10713 10716 10717 10718 10720 10721 10725 10730 10735 10741 10744 10748 10749 10750 10759 10762 10763 10773 10776 10773 10777 10781 10787 10789 10787 10793 10804 10810 10813 10818 10821 10821 10825 10830 10831 10834 10839 10842 10849 10854 10853 10856 10860 10860 10868 10875 10872 10872 10876 10880 10881 10879 10882 10888 10888 10889 10892 10894 10897 10900 10901 10903 10908 10907 10906 10911 10913 10912 10918 10924 10926 10926 10927 10932 10937 10940 10942 10944 10944 10946 10949 10951 10951
10699 10698 10697 10696 10696 10696 10698 10699 10702 10704 10705 10709 10712 10716 10723 10727 10732 10734 10738 10748 10744 10741 10755 10761 10764 10768 10766 10772 10779 10780 10782 10790 10801 10805 10806 10809 10811 10816 10822 10825 10830 10834 10837 10844 10848 10846 10849 10853 10857 10863 10864 10863 10867 10871 10873 10873 10874 10878 10882 10882 10885 10888 10890 10892 10895 10896 10900 10898 10894 10895 10901 10904 10906 10911 10916 10919 10920 10923 10929 10934 10936 10938 10941 10942 10945 10948 10948 10948
10681 10680 10680 10679 10680 10681 10682 10683 10686 10689 10691 10694 10695 10700 10704 10707 10716 10721 10725 10728 10718 10720 10739 10749 10757 10760 10757 10761 10767 10771 10775 10777 10787 10794 10795 10798 10801 10807 10815 10819 10822 10826 10831 10837 10837 10835 10840 10845 10849 10852 10853 10857 10863 10866 10867 10869 10870 10874 10877 10878 10882 10884 10885 10887 10889 10891 10892 10889 10887 10890 10896 10902 10903 10902 10909 10915 10916 10919 10926 10930 10933 10936 10938 10940 10943 10945 10945 10946
10663 10662 10662 10662 10664 10665 10665 10667 10669 10672 10675 10679 10681 10684 10686 10690 10700 10705 10705 10699 10694 10711 10730 10735 10746 10752 10750 10752 10752 10755 10763 10765 10771 10780 10782 10786 10790 10796 10804 10807 10810 10816 10820 10821 10822 10825 10830 10835 10842 10846 10849 10854 10858 10861 10863 10864 10865 10868 10871 10873 10877 10879 10879 10881 10883 10885 10885 10883 10885 10888 10894 10900 10898 10897 10908 10914 10912 10916 10922 10927 10930 10932 10935 10938 10940 10941 10941 10942
10645 10644 10644 10644 10645 10646 10648 10649 10652 10655 10657 10661 10665 10667 10669 10675 10682 10685 10680 10672 10681 10706 10717 10720 10735 10741 10737 10738 10736 10738 10746 10750 10757 10764 10769 10775 10780 10787 10794 10798 10804 10809 10809 10809 10815 10820 10823 10832 10841 10842 10843 10847 10852 10854 10855 10857 10859 10862 10865 10868 10872 10874 10875 10876 10878 10879 10879 10880 10883 10888 10893 10895 10894 10897 10906 10910 10909 10913 10920 10924 10927 10930 10933 10935 10937 10938 10938 10938
10626 10625 10624 10623 10623 10625 10627 10630 10633 10636 10638 10641 10645 10650 10653 10658 10663 10661 10650 10652 10674 10696 10703 10710 10720 10721 10720 10723 10721 10723 10731 10737 10744 10751 10756 10763 10771 10779 10785 10789 10794 10798 10799 10803 10810 10815 10819 10828 10833 10830 10832 10838 10843 10846 10848 10851 10855 10858 10860 10865 10869 10870 10870 10871 10873 10874 10876 10879 10881 10885 10887 10889 10891 10894 10900 10905 10906 10910 10917 10921 10924 10928 10930 10933 10934 10935 10935 10935
10606 10605 10602 10600 10600 10603 10604 10608 10613 10615 10618 10620 10624 10631 10634 10637 10640 10632 10625 10642 10668 10682 10690 10697 10696 10696 10704 10707 10705 10711 10719 10722 10728 10737 10744 10751 10760 10767 10772 10777 10782 10786 10791 10796 10802 10808 10813 10818 10821 10822 10826 10833 10838 10840 10843 10848 10850 10853 10857 10861 10863 10864 10865 10868 10870 10871 10874 10875 10877 10879 10881 10884 10886 10888 10893 10900 10903 10906 10914 10918 10921 10925 10927 10929 10932 10932 10933 10933
10585 10584 10581 10576 10576 10579 10582 10586 10590 10593 10597 10599 10602 10609 10613 10615 10615 10607 10612 10636 10655 10665 10675 10675 10673 10680 10689 10690 10692 10697 10701 10703 10712 10724 10732 10738 10744 10750 10758 10764 10768 10774 10781 10786 10790 10798 10804 10807 10811 10817 10821 10826 10830 10832 10836 10842 10845 10849 10854 10856 10858 10861 10865 10867 10867 10869 10870 10870 10871 10873 10875 10878 10880 10882 10887 10893 10898 10903 10909 10912 10916 10920 10922 10926 10928 10929 10931 10931
10563 10561 10560 10556 10554 10555 10558 10563 10567 10570 10574 10575 10578 10585 10588 10589 10590 10591 10604 10623 10635 10647 10656 10654 10656 10665 10669 10671 10674 10678 10685 10692 10701 10712 10718 10723 10729 10736 10744 10751 10757 10767 10774 10777 10783 10792 10799 10799 10803 10810 10813 10816 10821 10823 10830 10838 10842 10847 10850 10851 10856 10861 10863 10864 10864 10865 10865 10864 10865 10866 10870 10874 10875 10877 10882 10887 10892 10896 10900 10904 10910 10914 10917 10921 10923 10924 10928 10929
10543 10539 10537 10535 10534 10534 10535 10538 10541 10544 10548 10549 10553 10560 10563 10566 10572 10579 10592 10606 10616 10625 10632 10631 10634 10643 10650 10653 10655 10665 10680 10685 10688 10699 10706 10707 10711 10720 10730 10740 10752 10762 10766 10771 10780 10786 10791 10791 10792 10802 10805 10805 10811 10818 10827 10836 10838 10841 10845 10848 10855 10858 10859 10860 10860 10859 10860 10859 10860 10863 10867 10870 10871 10874 10880 10884 10888 10892 10895 10900 10905 10909 10912 10915 10917 10920 10923 10925
10523 10519 10517 10515 10514 10514 10515 10516 10517 10519 10521 10524 10530 10537 10541 10546 10555 10563 10572 10585 10593 10601 10609 10612 10614 10625 10634 10635 10638 10654 10671 10673 10676 10689 10690 10685 10693 10708 10720 10732 10746 10753 10757 10766 10772 10773 10779 10782 10781 10791 10797 10796 10806 10819 10826 10831 10833 10835 10840 10845 10850 10853 10855 10856 10856 10856 10857 10856 10856 10859 10864 10866 10868 10872 10876 10879 10883 10888 10892 10897 10901 10905 10908 10910 10914 10917 10920 10922
10507 10501 10499 10498 10497 10496 10496 10496 10497 10498 10499 10502 10508 10513 10518 10525 10534 10542 10551 10562 10571 10580 10590 10593 10597 10609 10617 10620 10628 10644 10659 10662 10664 10673 10670 10666 10681 10701 10713 10726 10739 10746 10750 10757 10759 10758 10769 10774 10770 10781 10792 10793 10804 10815 10817 10821 10825 10828 10834 10839 10843 10847 10849 10851 10852 10852 10852 10852 10851 10854 10859 10864 10866 10867 10870 10873 10878 10883 10888 10892 10896 10900 10902 10905 10909 10913 10915 10919
10492 10488 10484 10483 10481 10480 10480 10479 10479 10480 10481 10484 10488 10492 10498 10506 10513 10521 10529 10539 10548 10558 10567 10571 10578 10589 10598 10607 10617 10628 10642 10646 10649 10656 10652 10651 10672 10696 10708 10721 10733 10738 10741 10745 10747 10747 10756 10764 10761 10772 10787 10789 10793 10802 10806 10812 10817 10820 10826 10832 10835 10840 10843 10846 10847 10847 10847 10848 10847 10850 10855 10860 10862 10862 10865 10870 10874 10878 10882 10886 10889 10893 10896 10899 10903 10907 10910 10914
10479 10475 10473 10470 10468 10467 10465 10464 10464 10465 10466 10468 10471 10475 10480 10486 10493 10500 10508 10517 10526 10535 10545 10552 10557 10567 10580 10591 10597 10608 10623 10631 10636 10641 10636 10642 10669 10690 10700 10710 10718 10725 10728 10730 10732 10732 10742 10756 10757 10764 10779 10780 10780 10790 10798 10803 10809 10815 10821 10827 10832 10836 10840 10842 10842 10843 10844 10844 10844 10847 10852 10856 10858 10860 10863 10867 10870 10873 10876 10879 10883 10887 10890 10894 10898 10902 10906 10910
10467 10463 10461 10460 10456 10454 10453 10451 10451 10452 10453 10454 10457 10460 10465 10470 10475 10482 10488 10497 10507 10517 10527 10533 10537 10548 10565 10576 10584 10597 10611 10619 10623 10623 10624 10640 10664 10678 10686 10693 10701 10709 10713 10716 10720 10724 10738 10752 10752 10754 10766 10771 10772 10782 10792 10799 10807 10813 10817 10823 10829 10832 10835 10838 10839 10841 10842 10842 10843 10844 10848 10853 10856 10857 10860 10862 10865 10869 10871 10874 10877 10881 10885 10888 10892 10898 10903 10906
10458 10452 10450 10449 10447 10444 10442 10440 10439 10440 10441 10443 10445 10447 10451 10456 10460 10465 10471 10479 10489 10498 10508 10515 10521 10533 10549 10562 10573 10587 10599 10606 10607 10606 10615 10635 10653 10665 10675 10680 10686 10696 10702 10708 10715 10723 10735 10744 10744 10746 10759 10768 10771 10778 10789 10797 10804 10809 10812 10818 10823 10826 10830 10834 10836 10839 10840 10840 10841 10841 10844 10850 10853 10853 10855 10858 10861 10863 10865 10868 10872 10876 10880 10883 10889 10895 10898 10901
10451 10444 10439 10438 10437 10435 10432 10430 10429 10430 10431 10431 10433 10435 10438 10442 10447 10451 10456 10464 10473 10481 10489 10498 10506 10516 10531 10545 10559 10573 10583 10589 10590 10593 10609 10627 10638 10649 10660 10665 10674 10685 10693 10699 10705 10714 10723 10728 10735 10742 10751 10759 10763 10767 10778 10787 10794 10801 10806 10811 10816 10821 10824 10829 10833 10836 10836 10836 10838 10837 10839 10844 10847 10848 10850 10853 10856 10858 10860 10863 10866 10870 10874 10879 10886 10890 10892 10896
10443 10438 10433 10429 10427 10425 10423 10421 10420 10420 10421 10421 10422 10424 10426 10430 10435 10439 10444 10451 10458 10464 10472 10482 10490 10499 10512 10527 10544 10558 10566 10570 10574 10582 10598 10613 10624 10637 10649 10655 10664 10674 10680 10684 10691 10702 10708 10714 10726 10735 10738 10745 10754 10760 10771 10782 10788 10793 10797 10802 10809 10814 10818 10824 10829 10832 10831 10833 10834 10834 10835 10838 10841 10844 10846 10849 10852 10854 10856 10858 10861 10866 10870 10875 10880 10882 10886 10890
10434 10431 10427 10423 10419 10417 10415 10413 10412 10412 10412 10412 10413 10414 10417 10420 10423 10427 10432 10438 10443 10449 10457 10466 10474 10483 10495 10510 10527 10541 10549 10553 10558 10569 10584 10598 10612 10627 10637 10643 10651 10659 10665 10671 10680 10692 10699 10708 10719 10723 10724 10735 10748 10757 10767 10776 10780 10784 10789 10796 10802 10806 10812 10819 10823 10824 10826 10828 10829 10830 10831 10833 10835 10839 10842 10845 10848 10850 10852 10856 10859 10863 10866 10870 10873 10877 10881 10885
10426 10422 10419 10416 10413 10410 10408 10405 10404 10404 10404 10404 10404 10405 10408 10410 10413 10416 10421 10426 10430 10436 10444 10452 10461 10470 10481 10495 10510 10522 10532 10538 10544 10558 10575 10590 10605 10616 10620 10626 10635 10642 10650 10660 10672 10684 10694 10700 10704 10709 10716 10727 10740 10750 10758 10764 10771 10778 10783 10789 10794 10800 10807 10812 10815 10817 10820 10823 10824 10826 10829 10829 10830 10834 10839 10842 10845 10847 10850 10853 10856 10858 10862 10866 10869 10872 10876 10879
10421 10416 10412 10408 10406 10403 10401 10399 10397 10396 10397 10397 10396 10397 10399 10401 10403 10407 10411 10415 10420 10426 10433 10441 10450 10459 10468 10480 10493 10505 10515 10524 10535 10552 10569 10583 10597 10604 10605 10611 10622 10631 10642 10654 10666 10677 10682 10682 10689 10703 10713 10722 10735 10745 10749 10755 10764 10770 10773 10781 10788 10795 10801 10805 10809 10812 10815 10817 10820 10822 10824 10824 10824 10828 10835 10840 10842 10844 10846 10848 10851 10855 10857 10861 10864 10867 10871 10874
10416 10412 10407 10403 10400 10397 10395 10393 10391 10390 10390 10390 10390 10390 10392 10393 10395 10398 10401 10405 10411 10417 10423 10431 10439 10447 10456 10467 10479 10490 10501 10512 10526 10545 10562 10575 10587 10592 10594 10605 10620 10632 10642 10651 10661 10667 10666 10672 10689 10704 10710 10718 10729 10737 10742 10748 10754 10758 10765 10775 10783 10789 10794 10799 10802 10806 10810 10814 10817 10818 10820 10820 10820 10822 10830 10837 10838 10839 10842 10843 10847 10850 10852 10856 10859 10863 10866 10869
10411 10407 10403 10399 10395 10393 10390 10388 10386 10385 10384 10383 10384 10384 10385 10386 10388 10390 10393 10398 10403 10409 10415 10421 10428 10436 10445 10456 10467 10477 10487 10501 10518 10536 10550 10563 10575 10583 10588 10601 10617 10627 10634 10643 10652 10655 10657 10672 10689 10696 10701 10710 10716 10724 10732 10737 10742 10751 10762 10770 10775 10781 10787 10791 10796 10801 10805 10809 10811 10812 10812 10814 10815 10817 10823 10831 10833 10835 10837 10840 10843 10847 10850 10853 10856 10858 10861 10864